Wind_Speed
50 50 51 52 53 54 54 54 54 53 51 50 50 51 52 51 50 49 48 48 48 48 46 45 44 43 43 42 40 39 38 37 36 35 34 32 31 29
49 49 50 51 53 53 54 55 56 55 55 52 51 51 52 52 51 51 50 50 50 49 48 46 45 44 43 42 42 41 40 38 38 37 36 34 32 31
51 50 51 52 52 54 55 55 56 56 56 53 52 52 52 52 52 52 52 51 51 51 50 48 46 46 45 43 43 42 41 40 39 38 37 35 34 32
52 53 53 54 54 54 55 55 56 55 54 53 51 50 50 51 53 52 52 53 53 52 51 50 50 48 47 46 45 44 42 42 41 39 38 37 36 34
52 53 53 54 54 54 54 54 54 54 53 53 52 51 52 52 54 54 53 52 53 53 53 53 51 50 49 49 47 46 44 42 42 41 39 38 37 36
50 52 53 53 54 54 53 53 53 53 54 54 54 53 53 53 54 54 53 52 52 52 52 52 51 50 49 49 47 47 45 43 42 42 40 38 38 36
47 49 51 52 53 54 54 54 53 53 54 54 55 54 53 52 52 52 52 54 53 52 51 50 50 49 48 48 47 47 45 44 43 41 40 39 38 37
45 47 49 50 50 52 53 53 52 52 53 53 53 52 52 52 53 52 53 53 53 53 53 51 49 48 48 47 47 46 45 44 43 41 40 39 38 37
43 45 46 47 48 49 51 52 52 53 53 53 52 51 50 52 53 52 52 52 51 51 51 51 50 49 47 47 45 45 44 43 43 41 40 39 38 37
43 43 43 44 46 48 49 50 51 52 51 52 51 51 51 51 52 52 51 51 51 50 49 49 48 48 46 44 44 43 43 43 42 41 39 38 37 36
40 41 42 42 43 45 46 48 49 50 51 51 50 50 51 52 52 51 51 51 50 48 48 47 46 47 46 44 43 43 42 41 42 41 39 36 36 35
38 39 39 41 41 42 44 44 46 47 48 49 49 49 51 51 51 50 50 50 50 49 48 47 46 46 45 44 42 41 41 41 41 41 39 37 35 34
36 36 37 38 38 40 41 42 43 44 45 47 49 49 49 49 49 49 48 49 50 49 48 47 46 45 44 43 43 42 41 42 42 41 39 37 36 35
34 35 35 36 37 37 38 39 40 41 42 44 45 47 47 47 47 47 47 47 48 48 47 47 46 46 45 45 45 43 42 42 43 41 39 38 37 36
34 35 35 36 36 36 37 38 40 41 42 42 43 44 44 45 44 44 45 45 46 46 46 46 45 45 45 45 45 44 43 42 41 40 39 39 38 37
35 36 36 36 37 38 38 39 40 41 42 42 41 42 43 43 43 43 43 43 43 43 44 44 44 45 44 43 43 42 41 40 40 39 39 38 37 37
38 38 38 38 38 38 38 39 39 40 40 40 40 40 40 40 41 41 40 40 41 41 41 41 42 42 42 41 41 40 39 40 39 38 38 38 37 37
39 39 39 39 38 39 39 39 39 40 39 38 38 37 38 37 37 39 38 38 39 39 39 39 38 38 39 39 39 39 38 38 38 38 38 38 38 37
39 39 40 39 39 39 39 39 39 39 38 37 37 36 36 36 36 37 38 37 38 38 38 38 39 38 38 39 38 39 38 38 38 38 38 38 37 37
40 40 40 40 40 39 39 39 39 39 38 37 37 36 35 36 36 36 36 36 37 37 37 38 38 39 39 39 38 38 38 38 38 38 38 38 38 37
39 39 39 38 38 38 38 38 38 38 37 37 36 35 34 35 35 35 35 35 36 36 37 38 38 38 38 38 38 38 37 37 37 37 37 37 38 37
38 38 38 37 37 36 36 36 36 36 36 35 35 33 33 33 33 33 32 33 34 34 35 37 37 37 37 36 35 36 36 36 36 36 37 37 37 36
38 37 37 36 36 35 34 33 33 33 33 32 32 31 31 31 31 31 31 31 32 32 33 33 33 33 34 34 35 35 35 35 35 36 35 35 35 36
Wind_Direction
260 262 264 265 265 265 264 264 265 264 263 263 264 265 265 265 267 268 269 271 271 271 272 273 275 276 277 277 278 278 277 277 279 280 281 282 283 284
260 262 264 265 265 266 265 265 265 265 263 263 264 264 266 267 268 268 268 270 270 270 271 272 273 275 275 276 275 275 275 275 276 276 278 280 280 281
261 262 264 265 266 266 265 265 264 265 265 263 263 265 265 266 267 268 268 269 269 270 271 272 273 273 274 274 274 274 273 273 275 275 275 276 277 278
262 263 265 266 267 267 266 265 264 265 265 264 263 265 266 266 267 267 268 268 268 269 270 270 271 271 272 273 273 273 271 271 272 274 274 274 275 275
264 264 265 267 267 267 266 265 265 264 264 264 263 264 265 265 266 266 267 269 269 270 270 270 270 271 271 271 271 270 270 270 270 271 272 272 272 273
269 267 266 267 268 267 266 266 266 265 264 264 264 264 264 264 266 266 267 268 270 270 270 270 270 271 270 269 268 268 267 268 269 270 270 271 270 270
273 270 267 267 267 266 265 266 266 265 264 264 264 263 264 265 266 267 268 269 268 269 270 271 271 271 270 267 266 266 264 266 267 268 268 268 268 267
274 272 270 269 268 266 264 264 264 264 264 265 264 264 266 266 267 268 268 268 269 269 270 270 271 270 268 267 266 265 263 263 265 266 265 264 265 265
276 275 274 271 268 266 265 264 264 264 264 265 264 265 267 267 267 267 267 267 268 269 269 269 269 269 267 265 265 263 262 262 262 263 263 262 263 264
279 279 277 274 271 269 267 265 264 263 264 265 264 265 266 266 266 267 266 265 266 267 268 269 269 267 265 264 263 261 260 260 261 262 261 260 261 262
282 281 279 276 273 271 269 268 266 263 263 263 262 264 266 265 265 265 264 263 264 264 266 267 267 266 263 261 261 260 260 260 260 260 260 260 261 260
284 282 281 278 276 273 271 269 266 265 264 262 261 263 264 264 264 264 264 264 263 263 263 264 264 263 260 259 259 260 261 260 259 259 258 258 259 257
288 286 284 282 279 277 274 272 270 268 267 265 263 263 263 263 264 263 263 263 264 264 263 261 260 260 258 257 257 258 259 259 257 258 257 257 257 255
290 289 287 286 284 281 278 273 271 270 268 267 266 265 265 265 265 264 264 264 264 264 262 260 257 257 258 257 257 257 258 258 257 256 255 254 253 251
291 290 289 289 286 283 281 278 274 271 270 270 268 267 267 267 266 264 263 263 263 262 260 259 257 256 256 255 256 256 257 256 255 254 252 250 250 249
293 293 291 290 288 285 283 280 276 273 272 272 270 269 268 265 264 263 262 260 260 260 259 257 256 256 255 255 255 256 255 254 253 250 249 248 248 249
292 291 291 291 289 287 284 282 278 275 273 272 271 270 268 267 264 262 261 259 258 257 255 255 256 255 255 254 254 254 253 251 250 248 247 246 247 248
293 292 291 289 288 286 283 281 279 277 275 272 270 271 269 267 265 262 259 257 257 256 255 254 254 254 254 253 253 251 249 248 247 246 245 244 245 246
294 293 292 290 287 285 282 280 278 277 275 273 271 270 268 264 263 261 258 257 257 256 255 255 255 255 255 254 252 251 249 248 245 244 243 243 244 245
295 294 293 291 288 285 282 279 277 275 273 272 271 270 268 264 262 261 260 259 259 257 255 254 254 255 255 253 250 249 247 247 245 243 242 244 245 243
295 294 294 292 290 287 283 280 278 275 272 271 271 269 266 263 261 261 260 259 258 257 255 254 254 254 252 251 249 247 246 245 243 242 243 244 243 242
296 294 294 293 291 288 284 281 277 275 271 269 269 267 264 262 261 260 260 259 258 257 255 253 252 251 249 248 246 245 244 242 241 241 241 241 240 239
296 295 295 294 292 289 286 282 277 273 270 267 265 264 262 261 260 257 256 257 256 256 254 251 249 247 246 245 243 241 240 240 240 240 240 239 239 239
Height
5703 5704 5706 5707 5707 5708 5708 5709 5710 5712 5715 5717 5717 5718 5718 5718 5719 5719 5720 5720 5720 5720 5720 5721 5721 5721 5721 5721 5721 5722 5723 5723 5724 5724 5724 5723 5723 5723
5690 5691 5692 5693 5693 5693 5694 5694 5694 5695 5698 5702 5703 5704 5704 5705 5705 5705 5706 5707 5707 5708 5708 5708 5709 5709 5709 5709 5710 5710 5711 5712 5712 5713 5714 5714 5714 5714
5676 5677 5679 5679 5679 5679 5679 5679 5679 5680 5682 5686 5688 5689 5689 5690 5691 5691 5692 5693 5694 5695 5695 5695 5696 5696 5697 5697 5697 5698 5699 5700 5701 5702 5703 5703 5704 5704
5662 5663 5664 5664 5664 5664 5664 5664 5665 5665 5666 5669 5672 5674 5675 5676 5676 5677 5678 5679 5680 5681 5681 5682 5682 5682 5683 5684 5684 5685 5686 5688 5689 5690 5691 5692 5693 5693
5647 5648 5648 5648 5648 5648 5648 5649 5649 5650 5650 5653 5656 5658 5660 5661 5662 5663 5664 5664 5665 5665 5666 5666 5667 5667 5668 5669 5670 5671 5673 5675 5677 5678 5679 5680 5681 5682
5632 5632 5633 5632 5633 5633 5633 5634 5634 5634 5635 5637 5639 5642 5644 5645 5646 5647 5648 5649 5649 5649 5650 5650 5651 5651 5652 5654 5655 5657 5659 5661 5663 5665 5666 5668 5669 5670
5619 5618 5618 5617 5617 5617 5618 5618 5618 5619 5620 5621 5624 5626 5628 5629 5631 5632 5632 5633 5633 5634 5635 5636 5636 5637 5637 5638 5639 5641 5644 5646 5649 5651 5654 5655 5656 5658
5605 5604 5603 5602 5601 5602 5602 5602 5603 5603 5605 5606 5608 5610 5612 5614 5615 5616 5616 5616 5618 5621 5620 5621 5621 5622 5623 5624 5625 5627 5629 5632 5635 5638 5640 5642 5644 5646
5591 5590 5588 5587 5586 5586 5586 5587 5587 5588 5590 5591 5592 5594 5596 5598 5600 5600 5601 5601 5603 5604 5603 5604 5605 5606 5608 5609 5610 5613 5616 5619 5621 5624 5627 5629 5631 5633
5578 5576 5574 5573 5572 5571 5571 5571 5572 5573 5575 5576 5578 5580 5580 5581 5582 5584 5585 5586 5587 5588 5588 5589 5590 5591 5593 5595 5597 5600 5603 5605 5608 5611 5614 5616 5619 5621
5564 5562 5560 5558 5557 5556 5556 5556 5557 5558 5559 5559 5562 5563 5564 5565 5566 5567 5568 5570 5571 5573 5573 5574 5576 5577 5579 5581 5584 5587 5590 5592 5595 5599 5602 5604 5607 5609
5552 5549 5547 5545 5543 5541 5541 5541 5541 5543 5544 5545 5547 5548 5549 5549 5550 5551 5553 5554 5555 5557 5559 5560 5562 5563 5566 5569 5572 5574 5577 5580 5583 5586 5589 5592 5595 5597
5540 5538 5535 5532 5530 5528 5527 5527 5527 5528 5529 5530 5532 5533 5533 5534 5535 5536 5537 5537 5539 5542 5545 5545 5547 5549 5552 5556 5559 5561 5564 5568 5571 5574 5576 5580 5583 5586
5530 5527 5524 5522 5519 5516 5515 5514 5514 5514 5515 5516 5517 5518 5518 5519 5520 5520 5521 5522 5524 5527 5529 5531 5534 5536 5539 5542 5545 5548 5551 5554 5558 5561 5565 5568 5571 5574
5518 5516 5513 5510 5507 5505 5503 5502 5501 5501 5501 5501 5502 5503 5503 5504 5504 5506 5507 5508 5510 5511 5514 5517 5520 5522 5525 5528 5531 5535 5538 5541 5545 5549 5552 5556 5560 5563
5507 5504 5501 5498 5496 5493 5491 5489 5488 5488 5488 5488 5488 5489 5489 5490 5490 5492 5493 5495 5496 5498 5500 5503 5505 5508 5511 5515 5518 5521 5525 5529 5533 5536 5540 5544 5548 5552
5495 5492 5489 5486 5484 5482 5479 5478 5476 5476 5475 5475 5475 5476 5476 5476 5477 5478 5480 5481 5483 5485 5487 5490 5492 5495 5498 5501 5505 5508 5512 5516 5520 5524 5528 5532 5536 5541
5482 5479 5477 5474 5472 5469 5467 5466 5464 5463 5462 5462 5463 5463 5463 5464 5465 5466 5467 5469 5471 5473 5475 5477 5480 5482 5485 5489 5493 5496 5500 5504 5508 5512 5517 5521 5526 5529
5470 5467 5464 5461 5458 5456 5454 5452 5451 5450 5449 5449 5450 5450 5451 5451 5452 5454 5455 5457 5459 5461 5463 5465 5468 5470 5474 5478 5481 5485 5489 5493 5496 5501 5505 5510 5514 5519
5457 5454 5450 5447 5445 5442 5440 5439 5438 5438 5437 5437 5437 5438 5438 5439 5440 5442 5443 5445 5447 5449 5451 5454 5456 5459 5463 5467 5470 5474 5477 5481 5485 5490 5494 5498 5502 5507
5444 5441 5437 5434 5431 5429 5427 5426 5425 5424 5424 5425 5425 5425 5426 5427 5429 5430 5432 5433 5435 5438 5440 5443 5446 5448 5451 5455 5459 5462 5466 5470 5474 5479 5483 5487 5491 5496
5431 5428 5425 5421 5419 5416 5414 5413 5412 5412 5412 5412 5413 5414 5415 5416 5418 5419 5421 5423 5424 5427 5429 5432 5434 5437 5440 5444 5448 5452 5456 5460 5463 5467 5472 5477 5481 5486
5419 5416 5413 5409 5407 5404 5402 5401 5400 5400 5400 5401 5402 5403 5404 5406 5407 5408 5410 5412 5414 5416 5418 5421 5424 5427 5430 5433 5437 5441 5446 5450 5454 5458 5462 5466 5471 5475